Ely, MN

3:11 AM CDT on July 23, 2017 (GMT -0500)
Ely Municipal

Weather History for KELO - February, 2013

Change the Weather History Date:

Sunday, February 24, 2013

  Actual Average Record
Temperature  
Mean Temperature 18 °F -  
Max Temperature 37 °F 25 °F 48 °F (1998)
Min Temperature 0 °F 5 °F -25 °F (1997)
Degree Days  
Heating Degree Days 46    
Moisture  
Dew Point 12 °F    
Average Humidity 76    
Maximum Humidity 100    
Minimum Humidity 45    
Precipitation  
Precipitation 0.00 in - - ()
Sea Level Pressure  
Sea Level Pressure 29.95 in    
Wind  
Wind Speed 0 mph (WSW)    
Max Wind Speed 6 mph    
Max Gust Speed -    
Visibility 10 miles    
Events      
Averages and records for this station are not official NWS values.
T = Trace of Precipitation, MM = Missing Value Source: NWS Daily Summary

Daily Weather History Graph

Daily Weather History Graph

Search for Another Location

Airport or City:

Trip Planner

Search our weather history database for the weather conditions in past years. The results will help you decide how hot, cold, wet, or windy it might be!

Date:

Astronomy

Feb. 24, 2013 Rise Set
Actual Time 6:56 AM CST 5:44 PM CST
Civil Twilight 6:25 AM CST 6:16 PM CST
Nautical Twilight 5:49 AM CST 6:51 PM CST
Astronomical Twilight 5:14 AM CST 7:27 PM CST
Moon 4:56 PM CST (2/24) 5:56 AM CST (2/24)
Length of Visible Light 11h 50m
Length of Day
10h 47m
Waxing Gibbous, 99% of the Moon is Illuminated
Feb 24
Waxing Gibbous
Feb 25
Full
Mar 4
Last Quarter
Mar 11
New
Mar 19
First Quarter

Hourly Weather History & Observations

Time (CST) Temp. Windchill Dew Point Humidity Pressure Visibility Wind Dir Wind Speed Gust Speed Precip Events Conditions
12:13 AM 19.4 °F - 17.6 °F 93% 29.87 in 10.0 mi Calm Calm - N/A   Clear
12:33 AM 17.6 °F - 17.6 °F 100% 29.87 in 10.0 mi Calm Calm - N/A   Clear
12:53 AM 15.8 °F - 14.0 °F 93% 29.87 in 10.0 mi Calm Calm - N/A   Clear
1:13 AM 12.2 °F - 12.2 °F 100% 29.88 in 10.0 mi Calm Calm - N/A   Clear
1:33 AM 12.2 °F - 12.2 °F 100% 29.89 in 10.0 mi Calm Calm - N/A   Clear
1:52 AM 12.2 °F - 10.4 °F 92% 29.89 in 10.0 mi Calm Calm - N/A   Clear
2:13 AM 12.2 °F - 10.4 °F 92% 29.89 in 10.0 mi Calm Calm - N/A   Clear
2:33 AM 10.4 °F - 8.6 °F 92% 29.89 in 10.0 mi Calm Calm - N/A   Clear
2:51 AM 10.4 °F - 8.6 °F 92% 29.89 in 10.0 mi Calm Calm - N/A   Clear
3:12 AM 8.6 °F - 6.8 °F 92% 29.89 in 10.0 mi Calm Calm - N/A   Clear
3:33 AM 8.6 °F - 6.8 °F 92% 29.89 in 10.0 mi Calm Calm - N/A   Clear
3:53 AM 6.8 °F - 3.2 °F 85% 29.90 in 10.0 mi Calm Calm - N/A   Clear
4:12 AM 5.0 °F - 1.4 °F 85% 29.90 in 10.0 mi Calm Calm - N/A   Clear
4:33 AM 5.0 °F - 1.4 °F 85% 29.91 in 10.0 mi Calm Calm - N/A   Clear
4:53 AM 5.0 °F - 1.4 °F 85% 29.92 in 10.0 mi Calm Calm - N/A   Clear
5:12 AM 3.2 °F - -0.4 °F 85% 29.92 in 10.0 mi Calm Calm - N/A   Clear
5:33 AM 3.2 °F - -0.4 °F 85% 29.93 in 10.0 mi Calm Calm - N/A   Clear
5:53 AM 1.4 °F - -2.2 °F 85% 29.93 in 10.0 mi Calm Calm - N/A   Clear
6:12 AM 1.4 °F - -0.4 °F 92% 29.94 in 10.0 mi Calm Calm - N/A   Clear
6:33 AM -0.4 °F - -2.2 °F 92% 29.94 in 10.0 mi Calm Calm - N/A   Scattered Clouds
6:53 AM 1.4 °F - -2.2 °F 85% 29.94 in 10.0 mi Calm Calm - N/A   Overcast
7:12 AM 1.4 °F - -2.2 °F 85% 29.95 in 10.0 mi Calm Calm - N/A   Overcast
7:33 AM 3.2 °F - -0.4 °F 85% 29.95 in 10.0 mi Calm Calm - N/A   Scattered Clouds
7:53 AM 3.2 °F - 1.4 °F 92% 29.96 in 10.0 mi Calm Calm - N/A   Clear
8:12 AM 6.8 °F - 3.2 °F 85% 29.96 in 10.0 mi Calm Calm - N/A   Clear
8:33 AM 8.6 °F - 6.8 °F 92% 29.96 in 10.0 mi Calm Calm - N/A   Clear
8:53 AM 10.4 °F - 8.6 °F 92% 29.97 in 10.0 mi Calm Calm - N/A   Clear
9:12 AM 12.2 °F - 12.2 °F 100% 29.97 in 10.0 mi Calm Calm - N/A   Clear
9:33 AM 17.6 °F - 15.8 °F 93% 29.97 in 10.0 mi Calm Calm - N/A   Clear
9:53 AM 19.4 °F - 17.6 °F 93% 29.97 in 10.0 mi Calm Calm - N/A   Clear
10:12 AM 23.0 °F - 17.6 °F 80% 29.97 in 10.0 mi Calm Calm - N/A   Clear
10:33 AM 26.6 °F - 17.6 °F 69% 29.98 in 10.0 mi Calm Calm - N/A   Clear
10:52 AM 28.4 °F - 17.6 °F 64% 29.99 in 10.0 mi Calm Calm - N/A   Clear
11:13 AM 30.2 °F 25.4 °F 17.6 °F 60% 29.98 in 10.0 mi SSW 4.6 mph - N/A   Clear
11:33 AM 32.0 °F - 17.6 °F 55% 29.98 in 10.0 mi Calm Calm - N/A   Clear
11:52 AM 32.0 °F - 17.6 °F 55% 29.98 in 10.0 mi Calm Calm - N/A   Clear
12:13 PM 33.8 °F - 17.6 °F 52% 29.98 in 10.0 mi Calm Calm - N/A   Clear
12:33 PM 33.8 °F - 17.6 °F 52% 29.98 in 10.0 mi Calm Calm - N/A   Clear
12:52 PM 33.8 °F - 17.6 °F 52% 29.97 in 10.0 mi Calm Calm - N/A   Clear
1:13 PM 35.6 °F - 17.6 °F 48% 29.97 in 10.0 mi Calm Calm - N/A   Clear
1:33 PM 35.6 °F - 17.6 °F 48% 29.96 in 10.0 mi Calm Calm - N/A   Clear
1:52 PM 37.4 °F 34.9 °F 17.6 °F 45% 29.96 in 10.0 mi SSW 3.5 mph - N/A   Clear
2:13 PM 35.6 °F 30.7 °F 19.4 °F 52% 29.96 in 10.0 mi SSW 5.8 mph - N/A   Clear
2:33 PM 37.4 °F 32.8 °F 19.4 °F 48% 29.96 in 10.0 mi SW 5.8 mph - N/A   Clear
2:52 PM 37.4 °F 33.8 °F 17.6 °F 45% 29.96 in 10.0 mi SW 4.6 mph - N/A   Clear
3:13 PM 37.4 °F 33.8 °F 17.6 °F 45% 29.96 in 10.0 mi WSW 4.6 mph - N/A   Clear
3:32 PM 37.4 °F - 17.6 °F 45% 29.96 in 10.0 mi Calm Calm - N/A   Clear
3:53 PM 37.4 °F 32.8 °F 17.6 °F 45% 29.96 in 10.0 mi West 5.8 mph - N/A   Clear
4:12 PM 37.4 °F - 17.6 °F 45% 29.97 in 10.0 mi Calm Calm - N/A   Clear
4:33 PM 35.6 °F 31.7 °F 17.6 °F 48% 29.96 in 10.0 mi West 4.6 mph - N/A   Clear
4:53 PM 35.6 °F - 17.6 °F 48% 29.96 in 10.0 mi Calm Calm - N/A   Clear
5:13 PM 35.6 °F 32.8 °F 17.6 °F 48% 29.97 in 10.0 mi WNW 3.5 mph - N/A   Clear
5:33 PM 33.8 °F - 17.6 °F 52% 29.97 in 10.0 mi Calm Calm - N/A   Clear
5:53 PM 30.2 °F - 17.6 °F 60% 29.97 in 10.0 mi Calm Calm - N/A   Clear
6:12 PM 26.6 °F - 17.6 °F 69% 29.97 in 10.0 mi Calm Calm - N/A   Clear
6:33 PM 26.6 °F - 17.6 °F 69% 29.98 in 10.0 mi Calm Calm - N/A   Clear
6:52 PM 24.8 °F - 17.6 °F 74% 29.98 in 10.0 mi Calm Calm - N/A   Clear
7:13 PM 24.8 °F - 17.6 °F 74% 29.99 in 5.0 mi Calm Calm - N/A   Haze
7:33 PM 21.2 °F - 17.6 °F 86% 29.99 in 10.0 mi Calm Calm - N/A   Clear
7:52 PM 21.2 °F - 15.8 °F 80% 29.99 in 10.0 mi Calm Calm - N/A   Clear
8:13 PM 21.2 °F - 15.8 °F 80% 30.00 in 10.0 mi Calm Calm - N/A   Clear
8:33 PM 19.4 °F - 15.8 °F 86% 30.00 in 10.0 mi Calm Calm - N/A   Clear
8:52 PM 15.8 °F - 12.2 °F 86% 30.00 in 10.0 mi Calm Calm - N/A   Clear
9:13 PM 19.4 °F - 15.8 °F 86% 30.00 in 10.0 mi Calm Calm - N/A   Clear
9:33 PM 17.6 °F - 14.0 °F 86% 29.99 in 10.0 mi Calm Calm - N/A   Clear
9:52 PM 17.6 °F - 14.0 °F 86% 29.99 in 10.0 mi Calm Calm - N/A   Clear
10:13 PM 17.6 °F - 14.0 °F 86% 29.99 in 10.0 mi Calm Calm - N/A   Clear
10:33 PM 15.8 °F - 12.2 °F 86% 29.99 in 10.0 mi Calm Calm - N/A   Clear
10:52 PM 15.8 °F - 12.2 °F 86% 30.00 in 10.0 mi Calm Calm - N/A   Clear
11:13 PM 14.0 °F - 10.4 °F 86% 30.00 in 10.0 mi Calm Calm - N/A   Clear
11:32 PM 12.2 °F - 10.4 °F 92% 30.00 in 10.0 mi Calm Calm - N/A   Clear
11:53 PM 12.2 °F - 10.4 °F 92% 30.01 in 10.0 mi Calm Calm - N/A   Clear